Regional Weather Roundup
Issued by NWS State College, PA

Home | Current Version | Previous Version | Text Only | Print | Product List | Glossary On
Versions: 1 2 3 4 5 6 7 8 9 10 11 12 13 14 15 16 17 18 19 20 21 22 23 24 25 26 27 28 29 30 31 32 33 34 35 36 37 38 39 40 41 42 43 44 45 46 47 48 49 50
000
ASUS41 KCTP 281010
RWRCTP

REGIONAL WEATHER ROUNDUP
NATIONAL WEATHER SERVICE STATE COLLEGE PA
500 AM EST SAT FEB 28 2015

Note: "fair" indicates few or no clouds below 12,000 feet with no
significant weather and/or obstructions to visibility.

* = STATION THAT DOES NOT REPORT PRECIPITATION /E.G. RAIN...SNOW...ETC/
    THUNDER OR FOG.

PAZ002>004-007>009-013>016-020>023-029>032-281100-
WESTERN PENNSYLVANIA

CITY           SKY/WX    TMP DP  RH WIND       PRES   REMARKS
ERIE           PTCLDY     0  -8  69 S7        30.71R WCI -13
MEADVILLE        N/A      0  -5  79 S5        30.64R WCI -10
FRANKLIN*      MOCLDY    -6  -9  84 CALM      30.65R
NEW CASTLE     FAIR      -9 -13  82 CALM      30.72R
BEAVER COUNTY  NOT AVBL
BUTLER*        PTCLDY    -6  -9  84 CALM      30.68S
PITTSBURGH INT MOCLDY     1  -5  75 CALM      30.68R
PITTSBURGH     PTCLDY     8  -5  55 CALM      30.67R
INDIANA*       CLEAR     -8 -13  77 E5        30.70S WCI -19
LATROBE        PTCLDY     0  -4  85 CALM      30.71R
WASHINGTON CO* PTCLDY     0  -6  78 CALM      30.69R
$$

PAZ004>006-010>012-017>019-024>028-033>037-041-042-045-046-049>053-281100-
CENTRAL PENNSYLVANIA

CITY           SKY/WX    TMP DP  RH WIND       PRES   REMARKS
BRADFORD       PTCLDY   -16 -22  74 CALM      30.55R
DUBOIS         PTCLDY    -3  -8  79 CALM      30.60R
CLEARFIELD     MOCLDY    -8 -12  83 SW5       30.66R WCI -19
JOHNSTOWN      PTCLDY     3  -6  66 CALM      30.55R
ALTOONA        PTCLDY     4  -5  66 CALM      30.66R
STATE COLLEGE  PTCLDY     4  -6  64 W3        30.69R
WILLIAMSPORT   CLEAR      8  -5  55 CALM      30.74R
SELINSGROVE    CLEAR      4  -4  69 CALM      30.75R
FT INDIANTOWN  CLEAR      7  -3  63 SE1       30.75R
CAPITAL CITY   CLEAR     12  -2  53 W3        30.76R
HARRISBURG     PTCLDY    12   0  58 NW5       30.75R WCI   4
YORK           CLEAR      4  -3  73 W3        30.74R
$$

PAZ038>040-043-044-047-048-054-055-060>062-067>071-281100-
EASTERN PENNSYLVANIA

CITY           SKY/WX    TMP DP  RH WIND       PRES   REMARKS
SCRANTON       CLEAR      2  -8  63 CALM      30.66R
MOUNT POCONO     N/A    N/A N/A N/A MISG      30.52R
ALLENTOWN      CLEAR     10  -5  50 W6        30.73R WCI   0
QUAKERTOWN*    SUNNY     10  -2  56 CALM      30.72R
READING        CLEAR     12  -6  44 NW10      30.74R WCI  -1
LANCASTER      CLEAR      9  -1  64 NW3       30.74R
COATESVILLE    SUNNY     14   1  57 CALM      30.71R
POTTSTOWN      CLEAR      9  -1  64 CALM      30.76R
BLUE BELL      CLEAR     18   1  49 CALM      30.73R
DOYLESTOWN     CLEAR     10  -2  58 CALM      30.72R
WILLOW GROVE   NOT AVBL
NORTH PHILA    CLEAR     17  -1  45 N10       30.76R WCI   5
PHILADELPHIA   PTCLDY    18   0  45 N8        30.76R WCI   8
$$


USA.gov is the U.S. government's official web portal to all federal, state and local government web resources and services.